Manteo, NC

12:57 AM EDT on August 29, 2016 (GMT -0400)
Dare County Regional

Weather History for KMQI - July, 2013

Change the Weather History Date:

Friday, July 12, 2013

  Actual Average Record
Temperature  
Mean Temperature 76 °F -  
Max Temperature 81 °F 82 °F 96 °F (1986)
Min Temperature 72 °F 72 °F 33 °F (1996)
Cooling Degree Days 12    
Growing Degree Days 26 (Base 50)    
Moisture  
Dew Point 72 °F    
Average Humidity 87    
Maximum Humidity 96    
Minimum Humidity 75    
Precipitation  
Precipitation 0.37 in - - ()
Sea Level Pressure  
Sea Level Pressure 29.94 in    
Wind  
Wind Speed 10 mph (SW)    
Max Wind Speed 22 mph    
Max Gust Speed -    
Visibility 10 miles    
Events Rain    
Averages and records for this station are not official NWS values.
T = Trace of Precipitation, MM = Missing Value Source: NWS Daily Summary

Daily Weather History Graph

Daily Weather History Graph

Search for Another Location

Airport or City:

Trip Planner

Search our weather history database for the weather conditions in past years. The results will help you decide how hot, cold, wet, or windy it might be!

Date:

Astronomy

Jul. 12, 2013 Rise Set
Actual Time 5:56 AM EDT 8:20 PM EDT
Civil Twilight 5:26 AM EDT 8:50 PM EDT
Nautical Twilight 4:49 AM EDT 9:26 PM EDT
Astronomical Twilight 4:09 AM EDT 10:06 PM EDT
Moon 10:00 AM EDT (7/12) 10:40 PM EDT (7/12)
Length of Visible Light 15h 23m
Length of Day
14h 24m
Waxing Crescent, 17% of the Moon is Illuminated
Jul 12
Waxing Crescent
Jul 15
First Quarter
Jul 22
Full
Jul 29
Last Quarter
Aug 6
New

Hourly Weather History & Observations

Time (EDT) Temp. Heat Index Dew Point Humidity Pressure Visibility Wind Dir Wind Speed Gust Speed Precip Events Conditions
12:15 AM 77.9 °F - 73.4 °F 86% 29.92 in 10.0 mi SW 11.5 mph - N/A   Scattered Clouds
12:35 AM 77.5 °F - 73.4 °F 87% 29.92 in 10.0 mi SW 12.7 mph - N/A   Scattered Clouds
12:55 AM 77.9 °F - 73.4 °F 86% 29.91 in 10.0 mi SW 10.4 mph - N/A   Clear
1:15 AM 77.9 °F - 73.6 °F 86% 29.91 in 10.0 mi SW 13.8 mph - N/A   Scattered Clouds
1:35 AM 77.9 °F - 73.4 °F 86% 29.91 in 10.0 mi SW 12.7 mph - N/A   Scattered Clouds
1:55 AM 77.5 °F - 73.2 °F 86% 29.91 in 10.0 mi SW 15.0 mph - N/A   Mostly Cloudy
2:15 AM 77.4 °F - 73.2 °F 87% 29.91 in 10.0 mi WSW 15.0 mph - N/A   Scattered Clouds
2:35 AM 77.0 °F - 73.0 °F 88% 29.91 in 10.0 mi WSW 10.4 mph - N/A   Clear
2:55 AM 77.0 °F - 73.0 °F 88% 29.91 in 10.0 mi WSW 10.4 mph - N/A   Clear
3:15 AM 76.5 °F - 73.2 °F 90% 29.90 in 10.0 mi WSW 9.2 mph - N/A   Clear
3:35 AM 76.5 °F - 73.2 °F 90% 29.90 in 10.0 mi WSW 8.1 mph - N/A   Clear
3:55 AM 76.5 °F - 72.9 °F 89% 29.89 in 10.0 mi WSW 9.2 mph - N/A   Clear
4:15 AM 76.5 °F - 73.4 °F 90% 29.89 in 10.0 mi SW 10.4 mph - N/A   Clear
4:35 AM 76.3 °F - 73.0 °F 90% 29.89 in 10.0 mi SW 10.4 mph - N/A   Scattered Clouds
4:55 AM 76.3 °F - 73.2 °F 90% 29.90 in 10.0 mi SW 10.4 mph - N/A   Scattered Clouds
5:15 AM 76.5 °F - 73.2 °F 90% 29.90 in 10.0 mi SW 9.2 mph - N/A   Mostly Cloudy
5:35 AM 77.0 °F - 73.6 °F 89% 29.91 in 2.5 mi West 9.2 mph - N/A Rain Light Rain
5:55 AM 75.4 °F - 72.9 °F 92% 29.91 in 10.0 mi WSW 8.1 mph - 0.01 in   Mostly Cloudy
6:15 AM 75.6 °F - 71.4 °F 87% 29.91 in 10.0 mi WSW 10.4 mph - N/A   Scattered Clouds
6:35 AM 75.2 °F - 70.9 °F 86% 29.91 in 10.0 mi West 8.1 mph - N/A   Clear
6:55 AM 74.8 °F - 71.1 °F 88% 29.93 in 10.0 mi SW 11.5 mph - 0.01 in Rain Light Rain
7:15 AM 74.3 °F - 72.3 °F 94% 29.93 in 10.0 mi SW 9.2 mph - 0.01 in Rain Light Rain
7:35 AM 74.7 °F - 71.8 °F 91% 29.92 in 10.0 mi SW 6.9 mph - 0.01 in   Mostly Cloudy
7:55 AM 75.7 °F - 71.8 °F 87% 29.92 in 10.0 mi SSW 9.2 mph - 0.01 in   Scattered Clouds
8:15 AM 76.6 °F - 72.9 °F 88% 29.91 in 10.0 mi SW 9.2 mph - N/A   Scattered Clouds
8:35 AM 77.0 °F - 72.9 °F 87% 29.92 in 10.0 mi SW 8.1 mph - N/A   Clear
8:55 AM 77.5 °F - 72.7 °F 85% 29.93 in 10.0 mi SSW 12.7 mph - N/A   Scattered Clouds
9:15 AM 77.9 °F - 72.7 °F 84% 29.93 in 10.0 mi SW 10.4 mph - N/A   Scattered Clouds
9:35 AM 78.1 °F - 72.9 °F 84% 29.93 in 10.0 mi SW 9.2 mph - N/A   Mostly Cloudy
9:55 AM 78.8 °F - 72.9 °F 82% 29.93 in 10.0 mi SW 11.5 mph - N/A   Overcast
10:15 AM 78.8 °F - 72.9 °F 82% 29.94 in 10.0 mi SW 11.5 mph - N/A   Overcast
10:35 AM 78.4 °F - 72.7 °F 82% 29.94 in 10.0 mi WSW 9.2 mph - N/A   Overcast
10:55 AM 78.1 °F - 73.4 °F 85% 29.93 in 10.0 mi WSW 10.4 mph - N/A Rain Rain
11:15 AM 78.1 °F - 73.6 °F 86% 29.93 in 10.0 mi SW 9.2 mph - N/A   Mostly Cloudy
11:35 AM 79.0 °F - 73.4 °F 83% 29.93 in 10.0 mi SSW 10.4 mph - N/A   Scattered Clouds
11:55 AM 79.9 °F - 73.6 °F 81% 29.93 in 10.0 mi SSW 9.2 mph - N/A   Clear
12:15 PM 79.7 °F - 73.4 °F 81% 29.93 in 10.0 mi SSW 10.4 mph - N/A   Clear
12:35 PM 80.4 °F 84.7 °F 72.7 °F 77% 29.94 in 10.0 mi South 13.8 mph - N/A   Clear
12:55 PM 80.1 °F 84.2 °F 73.0 °F 79% 29.93 in 10.0 mi South 13.8 mph - N/A   Scattered Clouds
1:15 PM 81.0 °F 86.3 °F 74.3 °F 80% 29.94 in 10.0 mi SSW 19.6 mph - N/A   Mostly Cloudy
1:35 PM 79.9 °F - 75.2 °F 86% 29.94 in 10.0 mi SW 18.4 mph - N/A Rain Light Rain
1:55 PM 77.7 °F - 74.5 °F 90% 29.95 in 5.0 mi SW 21.9 mph - 0.05 in Rain Rain
2:15 PM 73.6 °F - 70.2 °F 89% 29.96 in 5.0 mi West 4.6 mph - 0.09 in Rain Rain
2:35 PM 74.3 °F - 72.5 °F 94% 29.96 in 7.0 mi WSW 10.4 mph - 0.14 in Rain Light Rain
2:55 PM 75.2 °F - 70.7 °F 86% 29.96 in 10.0 mi WSW 9.2 mph - 0.15 in Rain Light Rain
3:15 PM 75.9 °F - 73.6 °F 92% 29.96 in 10.0 mi West 5.8 mph - N/A   Mostly Cloudy
3:35 PM 76.6 °F - 71.1 °F 83% 29.95 in 10.0 mi WSW 5.8 mph - N/A   Mostly Cloudy
3:55 PM 77.4 °F - 69.3 °F 76% 29.96 in 10.0 mi WSW 4.6 mph - N/A   Mostly Cloudy
4:15 PM 77.2 °F - 68.7 °F 75% 29.97 in 10.0 mi WSW 8.1 mph - N/A Rain Light Rain
4:35 PM 75.9 °F - 69.4 °F 80% 29.97 in 10.0 mi West 6.9 mph - 0.01 in Rain Light Rain
4:55 PM 75.6 °F - 69.4 °F 81% 29.97 in 10.0 mi WNW 4.6 mph - 0.01 in   Mostly Cloudy
5:15 PM 74.3 °F - 70.3 °F 87% 29.98 in 3.0 mi West 5.8 mph - 0.09 in Rain Rain
5:35 PM 73.6 °F - 69.4 °F 87% 29.97 in 7.0 mi SW 6.9 mph - 0.13 in Rain Light Rain
5:55 PM 73.9 °F - 68.5 °F 83% 29.98 in 10.0 mi SSW 5.8 mph - 0.13 in   Scattered Clouds
6:15 PM 74.5 °F - 69.1 °F 83% 29.97 in 10.0 mi Calm Calm - N/A   Clear
6:35 PM 74.5 °F - 70.7 °F 88% 29.97 in 10.0 mi Calm Calm - N/A   Clear
6:55 PM 74.3 °F - 71.4 °F 91% 29.98 in 10.0 mi SSE 5.8 mph - N/A   Clear
7:15 PM 73.8 °F - 70.7 °F 90% 29.97 in 10.0 mi SSE 4.6 mph - N/A   Clear
7:35 PM 73.6 °F - 71.1 °F 92% 29.98 in 10.0 mi SSE 4.6 mph - N/A   Clear
7:55 PM 73.6 °F - 70.9 °F 91% 29.98 in 10.0 mi SSE 4.6 mph - N/A   Clear
8:15 PM 73.4 °F - 71.6 °F 94% 29.97 in 10.0 mi SSE 6.9 mph - N/A   Clear
8:35 PM 73.4 °F - 71.6 °F 94% 29.97 in 10.0 mi SSE 6.9 mph - N/A   Clear
8:55 PM 73.0 °F - 71.6 °F 95% 29.98 in 10.0 mi SSE 6.9 mph - N/A   Clear
9:15 PM 72.7 °F - 71.4 °F 96% 29.98 in 10.0 mi SSE 5.8 mph - N/A   Clear
9:35 PM 73.2 °F - 71.4 °F 94% 30.00 in 10.0 mi South 6.9 mph - N/A   Clear
9:55 PM 73.8 °F - 71.6 °F 93% 30.00 in 10.0 mi SSE 8.1 mph - N/A   Scattered Clouds
10:15 PM 74.3 °F - 71.6 °F 91% 30.01 in 10.0 mi SSE 8.1 mph - N/A   Mostly Cloudy
10:35 PM 74.7 °F - 71.8 °F 91% 30.01 in 10.0 mi South 6.9 mph - N/A   Scattered Clouds
10:55 PM 75.2 °F - 72.0 °F 90% 30.01 in 10.0 mi South 8.1 mph - N/A   Clear
11:15 PM 75.2 °F - 72.1 °F 90% 30.02 in 10.0 mi South 9.2 mph - N/A   Clear
11:35 PM 75.7 °F - 72.9 °F 91% 30.01 in 10.0 mi South 6.9 mph - N/A   Clear
11:55 PM 75.7 °F - 73.0 °F 91% 30.02 in 10.0 mi South 6.9 mph - N/A   Clear